Location: Orange
(33.2833°S, 149.1000°E)
Time: 10:40:38
(UTC+11:00)

N. Korean satellite - Pass Details

Date: 11 December 2021
Orbit: 447 x 491 km, 97.3° (Epoch: 23 January)

Event Time Altitude Azimuth Distance (km) Brightness Sun altitude
Rises 04:59:01 0° 37° (NE) 2,493 10.2 -9.4°
Reaches altitude 10° 05:01:15 10° 50° (NE) 1,635 9.4 -9.0°
Maximum altitude 05:04:14 26° 107° (ESE) 980 9.1 -8.5°
Drops below altitude 10° 05:07:16 10° 165° (SSE) 1,681 10.1 -8.0°
Sets 05:09:35 0° 177° (S) 2,579 10.8 -7.6°
